TimePDT,TemperatureF,Dew PointF,Humidity,Sea Level PressureIn,VisibilityMPH,Wind Direction,Wind SpeedMPH,Gust SpeedMPH,PrecipitationIn,Events,Conditions,WindDirDegrees,DateUTC
12:02 AM,66.2,59.0,78,29.86,9.0,SSW,3.5,-,N/A,,Mostly Cloudy,200,2013-06-01 07:02:00
12:53 AM,66.9,59.0,76,29.84,9.0,Calm,Calm,-,N/A,,Overcast,0,2013-06-01 07:53:00
1:53 AM,68.0,59.0,73,29.83,9.0,Calm,Calm,-,N/A,,Overcast,0,2013-06-01 08:53:00
2:53 AM,68.0,59.0,73,29.82,9.0,Calm,Calm,-,N/A,,Overcast,0,2013-06-01 09:53:00
3:53 AM,68.0,59.0,73,29.81,9.0,Calm,Calm,-,N/A,,Overcast,0,2013-06-01 10:53:00
4:53 AM,68.0,59.0,73,29.81,9.0,Calm,Calm,-,N/A,,Overcast,0,2013-06-01 11:53:00
5:53 AM,68.0,59.0,73,29.82,9.0,Calm,Calm,-,N/A,,Overcast,0,2013-06-01 12:53:00
6:53 AM,68.0,59.0,73,29.82,8.0,Calm,Calm,-,N/A,,Overcast,0,2013-06-01 13:53:00
7:53 AM,70.0,60.1,71,29.83,8.0,Calm,Calm,-,N/A,,Overcast,0,2013-06-01 14:53:00
8:45 AM,71.6,60.8,69,29.82,7.0,Calm,Calm,-,N/A,,Overcast,0,2013-06-01 15:45:00
8:53 AM,72.0,60.1,66,29.82,7.0,Calm,Calm,-,N/A,,Mostly Cloudy,0,2013-06-01 15:53:00
9:36 AM,73.4,60.8,65,29.81,7.0,Calm,Calm,-,N/A,,Clear,0,2013-06-01 16:36:00
9:53 AM,75.0,60.1,60,29.81,8.0,SSW,3.5,-,N/A,,Clear,200,2013-06-01 16:53:00
10:53 AM,80.1,60.1,50,29.80,8.0,Variable,4.6,-,N/A,,Clear,0,2013-06-01 17:53:00
11:53 AM,84.0,60.1,44,29.79,9.0,SW,4.6,-,N/A,,Clear,220,2013-06-01 18:53:00
12:53 PM,82.9,61.0,47,29.77,10.0,SSW,9.2,-,N/A,,Clear,210,2013-06-01 19:53:00
1:53 PM,82.9,61.0,47,29.76,10.0,SW,9.2,-,N/A,,Clear,220,2013-06-01 20:53:00
2:53 PM,82.9,62.1,49,29.75,9.0,Variable,6.9,-,N/A,,Clear,0,2013-06-01 21:53:00
3:53 PM,81.0,62.1,52,29.75,9.0,SSW,11.5,-,N/A,,Clear,200,2013-06-01 22:53:00
4:53 PM,78.1,61.0,56,29.76,10.0,SSW,9.2,-,N/A,,Clear,200,2013-06-01 23:53:00
5:53 PM,75.0,61.0,62,29.75,9.0,SSW,11.5,-,N/A,,Clear,200,2013-06-02 00:53:00
6:53 PM,72.0,61.0,68,29.76,8.0,South,6.9,-,N/A,,Clear,190,2013-06-02 01:53:00
7:53 PM,70.0,60.1,71,29.78,7.0,South,6.9,-,N/A,,Scattered Clouds,190,2013-06-02 02:53:00
8:02 PM,69.8,60.8,73,29.78,4.0,SSW,5.8,-,N/A,,Haze,200,2013-06-02 03:02:00
8:53 PM,68.0,59.0,73,29.80,10.0,Variable,4.6,-,N/A,,Overcast,0,2013-06-02 03:53:00
9:53 PM,68.0,59.0,73,29.81,10.0,South,4.6,-,N/A,,Overcast,190,2013-06-02 04:53:00
10:53 PM,69.1,59.0,70,29.82,10.0,Calm,Calm,-,N/A,,Overcast,0,2013-06-02 05:53:00
11:53 PM,68.0,59.0,73,29.82,10.0,Calm,Calm,-,N/A,,Overcast,0,2013-06-02 06:53:00